This is the latest recevied weather packets stored in our database for station/object DL9NEE-10. If no packets are shown the sender has not sent any weather packets the latest 10 day(s).
| Time | Temp. | Humidity | Pressure | Rain* | Wind** | Luminosity | Snow |
|---|---|---|---|---|---|---|---|
| 1777796641 | 22.22° C | 39% | 1017 hPa | - | - | - | - |
| 1777795741 | 21.67° C | 39% | 1016.9 hPa | - | - | - | - |
| 1777794841 | 20.56° C | 41% | 1017 hPa | - | - | - | - |
| 1777793941 | 20° C | 42% | 1016.9 hPa | - | - | - | - |
| 1777793041 | 19.44° C | 44% | 1017.1 hPa | - | - | - | - |
| 1777792141 | 18.33° C | 46% | 1017.1 hPa | - | - | - | - |
| 1777791240 | 17.78° C | 47% | 1017.2 hPa | - | - | - | - |
| 1777790340 | 16.67° C | 48% | 1017.2 hPa | - | - | - | - |
| 1777789440 | 16.11° C | 49% | 1017 hPa | - | - | - | - |
| 1777788540 | 15.56° C | 50% | 1017 hPa | - | - | - | - |
| 1777787640 | 15° C | 51% | 1017 hPa | - | - | - | - |
| 1777786740 | 14.44° C | 51% | 1016.7 hPa | - | - | - | - |
| 1777785840 | 14.44° C | 52% | 1016.8 hPa | - | - | - | - |
| 1777784939 | 13.89° C | 52% | 1016.8 hPa | - | - | - | - |
| 1777784039 | 13.89° C | 53% | 1016.8 hPa | - | - | - | - |
| 1777783139 | 13.33° C | 53% | 1016.9 hPa | - | - | - | - |
| 1777782239 | 13.33° C | 53% | 1016.9 hPa | - | - | - | - |
| 1777781339 | 13.33° C | 53% | 1016.9 hPa | - | - | - | - |
| 1777780439 | 13.33° C | 53% | 1017 hPa | - | - | - | - |
| 1777779539 | 13.33° C | 52% | 1016.9 hPa | - | - | - | - |
| 1777778638 | 13.89° C | 52% | 1016.9 hPa | - | - | - | - |
| 1777777738 | 13.89° C | 52% | 1016.9 hPa | - | - | - | - |
| 1777776838 | 13.89° C | 51% | 1017.1 hPa | - | - | - | - |
| 1777775938 | 14.44° C | 51% | 1017.1 hPa | - | - | - | - |
| 1777775038 | 14.44° C | 51% | 1017.2 hPa | - | - | - | - |
* Rain since midnight (hover to see other rain measurements)
** Current wind speed in m/s (hover to see current wind gust speed)